,,Stat5,,Stat1,,Stat2,,Stat3,,Stat4,,Wind1,,Wind1,
time,status,PA1M_AVG,status,PR1M_SUM,status,RH1M_AVG,status,SR1M_AVG,status,TA1M_AVG,status,W1dAve1m,status,W1sAve1m,
2001-08-12, 00:00:00,VALID,919.842,VALID,0,VALID,96.2643,VALID,0.0509425,VALID,18.3882,VALID,123,VALID,0.972873,
2001-08-12, 00:01:00,VALID,919.83,VALID,0,VALID,95.9553,VALID,0.0849042,VALID,18.3885,VALID,107,VALID,1.36225,
2001-08-12, 00:02:00,VALID,919.802,VALID,0,VALID,95.8586,VALID,0.0679233,VALID,18.4148,VALID,102,VALID,1.35759,
2001-08-12, 00:03:00,VALID,919.787,VALID,0,VALID,95.5153,VALID,0.0849042,VALID,18.4272,VALID,102,VALID,1.14885,
2001-08-12, 00:04:00,VALID,919.768,VALID,0,VALID,95.3525,VALID,0.0339617,VALID,18.4369,VALID,103,VALID,1.30729,
2001-08-12, 00:05:00,VALID,919.771,VALID,0,VALID,95.5039,VALID,0.0509425,VALID,18.4367,VALID,115,VALID,1.39556,
2001-08-12, 00:06:00,VALID,919.763,VALID,0,VALID,95.556,VALID,0.0849042,VALID,18.4597,VALID,119,VALID,1.2848,
2001-08-12, 00:07:00,VALID,919.774,VALID,0,VALID,95.5013,VALID,0.0509425,VALID,18.4662,VALID,123,VALID,0.993421,
2001-08-12, 00:08:00,VALID,919.768,VALID,0,VALID,95.603,VALID,0.0509425,VALID,18.4692,VALID,128,VALID,1.18186,
2001-08-12, 00:09:00,VALID,919.773,VALID,0,VALID,95.5,VALID,0.0849042,VALID,18.4789,VALID,120,VALID,0.930532,
2001-08-12, 00:10:00,VALID,919.779,VALID,0,VALID,95.4263,VALID,0.0679233,VALID,18.4757,VALID,119,VALID,1.16262,
2001-08-12, 00:11:00,VALID,919.787,VALID,0,VALID,95.144,VALID,0.0679233,VALID,18.4561,VALID,118,VALID,0.856988,
2001-08-12, 00:12:00,VALID,919.803,VALID,0,VALID,95.3157,VALID,0.0679233,VALID,18.4367,VALID,125,VALID,1.18666,
2001-08-12, 00:13:00,VALID,919.8,VALID,0,VALID,95.3347,VALID,0.0509425,VALID,18.4667,VALID,130,VALID,0.779514,
2001-08-12, 00:14:00,VALID,919.81,VALID,0,VALID,95.0219,VALID,0,VALID,18.4704,VALID,127,VALID,0.965303,
2001-08-12, 00:15:00,VALID,919.81,VALID,0,VALID,95.0092,VALID,0,VALID,18.4771,VALID,139,VALID,0.726768,
2001-08-12, 00:16:00,VALID,919.819,VALID,0,VALID,94.9469,VALID,-0.0679233,VALID,18.4646,VALID,131,VALID,0.846429,
2001-08-12, 00:17:00,VALID,919.841,VALID,0,VALID,95.2267,VALID,-0.0679233,VALID,18.4644,VALID,125,VALID,0.858507,
2001-08-12, 00:18:00,VALID,919.841,VALID,0,VALID,95.0168,VALID,-0.0509425,VALID,18.445,VALID,115,VALID,0.865451,
2001-08-12, 00:19:00,VALID,919.844,VALID,0,VALID,95.4047,VALID,-0.0679233,VALID,18.4224,VALID,132,VALID,0.724609,
2001-08-12, 00:20:00,VALID,919.817,VALID,0,VALID,95.2724,VALID,-0.101885,VALID,18.4226,VALID,124,VALID,0.494243,
2001-08-12, 00:21:00,VALID,919.799,VALID,0,VALID,94.9622,VALID,-0.0849042,VALID,18.3968,VALID,108,VALID,0.384115,
2001-08-12, 00:22:00,VALID,919.758,VALID,0,VALID,94.9227,VALID,-0.0169808,VALID,18.3576,VALID,107,VALID,0.514323,
2001-08-12, 00:23:00,VALID,919.725,VALID,0,VALID,95.0168,VALID,-0.0509425,VALID,18.3384,VALID,102,VALID,0.455592,
2001-08-12, 00:24:00,VALID,919.695,VALID,0,VALID,95.2546,VALID,-0.0509425,VALID,18.3322,VALID,103,VALID,0.680804,
2001-08-12, 00:25:00,VALID,919.665,VALID,0,VALID,95.6285,VALID,-0.0679233,VALID,18.3283,VALID,104,VALID,0.935177,
2001-08-12, 00:26:00,VALID,919.642,VALID,0,VALID,95.8345,VALID,-0.0169808,VALID,18.3677,VALID,103,VALID,1.16016,
2001-08-12, 00:27:00,VALID,919.643,VALID,0,VALID,95.7493,VALID,-0.101885,VALID,18.4194,VALID,115,VALID,1.28674,
2001-08-12, 00:28:00,VALID,919.639,VALID,0,VALID,95.4568,VALID,-0.0509425,VALID,18.4741,VALID,119,VALID,1.24038,
2001-08-12, 00:29:00,VALID,919.619,VALID,0,VALID,95.1249,VALID,-0.0169808,VALID,18.5308,VALID,117,VALID,1.32634,
2001-08-12, 00:30:00,VALID,919.613,VALID,0,VALID,94.6201,VALID,0.0509425,VALID,18.5984,VALID,105,VALID,1.18565,
2001-08-12, 00:31:00,VALID,919.599,VALID,0,VALID,94.1801,VALID,0.0339617,VALID,18.6339,VALID,103,VALID,1.13348,
2001-08-12, 00:32:00,VALID,919.571,VALID,0,VALID,93.9512,VALID,0.0169808,VALID,18.6376,VALID,100,VALID,0.979384,
2001-08-12, 00:33:00,VALID,919.557,VALID,0,VALID,93.7529,VALID,0.0509425,VALID,18.6021,VALID,94,VALID,1.0855,
2001-08-12, 00:34:00,VALID,919.54,VALID,0,VALID,94.2208,VALID,0.0509425,VALID,18.5792,VALID,97,VALID,1.22504,
2001-08-12, 00:35:00,VALID,919.534,VALID,0,VALID,94.072,VALID,0.0339617,VALID,18.5665,VALID,93,VALID,1.02282,
2001-08-12, 00:36:00,VALID,919.538,VALID,0,VALID,94.3925,VALID,0.0849042,VALID,18.5474,VALID,105,VALID,1.17904,
2001-08-12, 00:37:00,VALID,919.527,VALID,0,VALID,94.7028,VALID,0.0509425,VALID,18.5405,VALID,114,VALID,1.23242,
2001-08-12, 00:38:00,VALID,919.522,VALID,0,VALID,94.91,VALID,0.0339617,VALID,18.5213,VALID,112,VALID,1.16242,
2001-08-12, 00:39:00,VALID,919.506,VALID,0,VALID,94.9952,VALID,0.0339617,VALID,18.4883,VALID,118,VALID,0.877009,
2001-08-12, 00:40:00,VALID,919.502,VALID,0,VALID,94.9927,VALID,0.0509425,VALID,18.4791,VALID,114,VALID,0.818201,
2001-08-12, 00:41:00,VALID,919.499,VALID,0,VALID,95.1224,VALID,0.0509425,VALID,18.4729,VALID,106,VALID,0.908778,
2001-08-12, 00:42:00,VALID,919.482,VALID,0,VALID,95.1656,VALID,0.0679233,VALID,18.4531,VALID,104,VALID,0.964105,
2001-08-12, 00:43:00,VALID,919.467,VALID,0,VALID,94.9609,VALID,0.0849042,VALID,18.4701,VALID,94,VALID,0.763021,
2001-08-12, 00:44:00,VALID,919.468,VALID,0,VALID,94.7485,VALID,-0.0339617,VALID,18.4353,VALID,102,VALID,0.682813,
2001-08-12, 00:45:00,VALID,919.469,VALID,0,VALID,94.7918,VALID,-0.0169808,VALID,18.3869,VALID,127,VALID,0.582442,
2001-08-12, 00:46:00,VALID,919.466,VALID,0,VALID,95.0283,VALID,-0.0509425,VALID,18.3546,VALID,139,VALID,0.704464,
2001-08-12, 00:47:00,VALID,919.465,VALID,0,VALID,95.2317,VALID,0,VALID,18.3218,VALID,118,VALID,0.914497,
2001-08-12, 00:48:00,VALID,919.452,VALID,0,VALID,95.3284,VALID,-0.0509425,VALID,18.3057,VALID,128,VALID,0.670139,
2001-08-12, 00:49:00,VALID,919.42,VALID,0,VALID,95.5547,VALID,-0.0849042,VALID,18.3004,VALID,124,VALID,1.176,
2001-08-12, 00:50:00,VALID,919.404,VALID,0,VALID,95.7226,VALID,-0.0509425,VALID,18.3124,VALID,110,VALID,0.971423,
2001-08-12, 00:51:00,VALID,919.376,VALID,0,VALID,95.4326,VALID,-0.0679233,VALID,18.3126,VALID,102,VALID,0.696398,
2001-08-12, 00:52:00,VALID,919.364,VALID,0,VALID,95.4772,VALID,-0.101885,VALID,18.3001,VALID,120,VALID,0.972656,
2001-08-12, 00:53:00,VALID,919.358,VALID,0,VALID,95.7582,VALID,-0.0849042,VALID,18.3165,VALID,93,VALID,0.920847,
2001-08-12, 00:54:00,VALID,919.367,VALID,0,VALID,95.0092,VALID,-0.0849042,VALID,18.313,VALID,88,VALID,0.433259,
2001-08-12, 00:55:00,VALID,919.359,VALID,0,VALID,95.0423,VALID,-0.0679233,VALID,18.2711,VALID,100,VALID,0.760769,
2001-08-12, 00:56:00,VALID,919.35,VALID,0,VALID,95.5484,VALID,-0.0679233,VALID,18.2646,VALID,106,VALID,1.29067,
2001-08-12, 00:57:00,VALID,919.334,VALID,0,VALID,95.9057,VALID,-0.101885,VALID,18.2646,VALID,111,VALID,1.45503,
2001-08-12, 00:58:00,VALID,919.316,VALID,0,VALID,95.9833,VALID,-0.101885,VALID,18.2582,VALID,114,VALID,1.3123,
2001-08-12, 00:59:00,VALID,919.303,VALID,0,VALID,95.9616,VALID,-0.0169808,VALID,18.2535,VALID,115,VALID,1.23036,
2001-08-12, 01:00:00,VALID,919.286,VALID,0,VALID,95.8777,VALID,0.0169808,VALID,18.2369,VALID,115,VALID,1.09642,
2001-08-12, 01:01:00,VALID,919.268,VALID,0,VALID,95.7887,VALID,0.0169808,VALID,18.1954,VALID,113,VALID,0.996875,
2001-08-12, 01:02:00,VALID,919.25,VALID,0,VALID,95.6971,VALID,0,VALID,18.1532,VALID,129,VALID,0.771484,
2001-08-12, 01:03:00,VALID,919.236,VALID,0,VALID,95.8752,VALID,0.0509425,VALID,18.1248,VALID,113,VALID,0.654731,
2001-08-12, 01:04:00,VALID,919.223,VALID,0,VALID,95.809,VALID,0,VALID,18.0854,VALID,112,VALID,0.745443,
2001-08-12, 01:05:00,VALID,919.219,VALID,0,VALID,95.8688,VALID,0.0169808,VALID,18.0603,VALID,115,VALID,0.852385,
2001-08-12, 01:06:00,VALID,919.211,VALID,0,VALID,96.0163,VALID,0.0169808,VALID,18.0277,VALID,118,VALID,0.600694,
2001-08-12, 01:07:00,VALID,919.215,VALID,0,VALID,96.1473,VALID,0.0169808,VALID,18.0047,VALID,132,VALID,0.740668,
2001-08-12, 01:08:00,VALID,919.208,VALID,0,VALID,96.3953,VALID,0,VALID,18.0146,VALID,134,VALID,0.512952,
2001-08-12, 01:09:00,VALID,919.187,VALID,0,VALID,96.3914,VALID,0.0509425,VALID,18.0174,VALID,124,VALID,0.879018,
2001-08-12, 01:10:00,VALID,919.176,VALID,0,VALID,96.2058,VALID,0.101885,VALID,18.0368,VALID,119,VALID,0.812078,
2001-08-12, 01:11:00,VALID,919.16,VALID,0,VALID,96.1358,VALID,0.0169808,VALID,18.037,VALID,139,VALID,0.653033,
2001-08-12, 01:12:00,VALID,919.136,VALID,0,VALID,95.9095,VALID,0,VALID,18.0411,VALID,106,VALID,0.929054,
2001-08-12, 01:13:00,VALID,919.122,VALID,0,VALID,95.9337,VALID,0,VALID,18.028,VALID,112,VALID,1.00621,
2001-08-12, 01:14:00,VALID,919.113,VALID,0,VALID,95.851,VALID,-0.0679233,VALID,18.0353,VALID,93,VALID,1.12924,
2001-08-12, 01:15:00,VALID,919.107,VALID,0,VALID,95.7022,VALID,-0.0679233,VALID,18.0519,VALID,105,VALID,0.722656,
2001-08-12, 01:16:00,VALID,919.091,VALID,0,VALID,95.4543,VALID,-0.0679233,VALID,18.0222,VALID,117,VALID,0.758929,
2001-08-12, 01:17:00,VALID,919.076,VALID,0,VALID,95.4606,VALID,-0.0679233,VALID,17.9934,VALID,130,VALID,0.940321,
2001-08-12, 01:18:00,VALID,919.063,VALID,0,VALID,95.8523,VALID,-0.0849042,VALID,17.9968,VALID,116,VALID,1.22852,
2001-08-12, 01:19:00,VALID,919.041,VALID,0,VALID,95.706,VALID,-0.0849042,VALID,17.9899,VALID,141,VALID,0.772352,
2001-08-12, 01:20:00,VALID,919.031,VALID,0,VALID,95.715,VALID,-0.101885,VALID,17.9874,VALID,137,VALID,0.999589,
2001-08-12, 01:21:00,VALID,919.04,VALID,0,VALID,95.7595,VALID,-0.101885,VALID,17.9876,VALID,138,VALID,1.45226,
2001-08-12, 01:22:00,VALID,919.031,VALID,0,VALID,95.7569,VALID,-0.101885,VALID,17.9934,VALID,139,VALID,1.30686,
2001-08-12, 01:23:00,VALID,919.026,VALID,0,VALID,95.8853,VALID,-0.101885,VALID,18.0063,VALID,141,VALID,1.46012,
2001-08-12, 01:24:00,VALID,919.001,VALID,0,VALID,95.8243,VALID,-0.0679233,VALID,17.9899,VALID,129,VALID,1.18616,
2001-08-12, 01:25:00,VALID,918.986,VALID,0,VALID,96.0748,VALID,-0.0509425,VALID,17.9548,VALID,133,VALID,1.20059,
2001-08-12, 01:26:00,VALID,918.958,VALID,0,VALID,96.1918,VALID,-0.0849042,VALID,17.938,VALID,121,VALID,0.845358,
2001-08-12, 01:27:00,VALID,918.939,VALID,0,VALID,96.1498,VALID,-0.0679233,VALID,17.9122,VALID,123,VALID,0.481208,
2001-08-12, 01:28:00,VALID,918.926,VALID,0,VALID,96.1066,VALID,-0.0679233,VALID,17.8969,VALID,131,VALID,0.356771,
2001-08-12, 01:29:00,VALID,918.926,VALID,0,VALID,96.2058,VALID,-0.101885,VALID,17.8808,VALID,137,VALID,0.316071,
2001-08-12, 01:30:00,VALID,918.926,VALID,0,VALID,96.2605,VALID,-0.0849042,VALID,17.8642,VALID,114,VALID,0.585938,
2001-08-12, 01:31:00,VALID,918.923,VALID,0,VALID,96.3215,VALID,-0.0679233,VALID,17.8543,VALID,113,VALID,0.89375,
2001-08-12, 01:32:00,VALID,918.916,VALID,0,VALID,96.1117,VALID,-0.0849042,VALID,17.8679,VALID,102,VALID,1.21181,
2001-08-12, 01:33:00,VALID,918.905,VALID,0,VALID,95.734,VALID,-0.101885,VALID,17.8481,VALID,90,VALID,1.13851,
2001-08-12, 01:34:00,VALID,918.899,VALID,0,VALID,95.4772,VALID,-0.0679233,VALID,17.8354,VALID,82,VALID,0.8852,
2001-08-12, 01:35:00,VALID,918.885,VALID,0,VALID,95.219,VALID,-0.0679233,VALID,17.7609,VALID,84,VALID,0.909951,
2001-08-12, 01:36:00,VALID,918.893,VALID,0,VALID,95.3665,VALID,-0.101885,VALID,17.7254,VALID,85,VALID,0.842665,
2001-08-12, 01:37:00,VALID,918.883,VALID,0,VALID,95.336,VALID,-0.0509425,VALID,17.6933,VALID,89,VALID,0.73329,
2001-08-12, 01:38:00,VALID,918.887,VALID,0,VALID,95.7175,VALID,-0.0339617,VALID,17.6476,VALID,99,VALID,0.899054,
2001-08-12, 01:39:00,VALID,918.885,VALID,0,VALID,95.9464,VALID,-0.0679233,VALID,17.6576,VALID,99,VALID,0.769866,
2001-08-12, 01:40:00,VALID,918.869,VALID,0,VALID,95.9489,VALID,-0.0339617,VALID,17.6509,VALID,102,VALID,0.686444,
2001-08-12, 01:41:00,VALID,918.859,VALID,0,VALID,96.2185,VALID,-0.0679233,VALID,17.6578,VALID,119,VALID,0.834329,
2001-08-12, 01:42:00,VALID,918.858,VALID,0,VALID,96.071,VALID,-0.0509425,VALID,17.6868,VALID,107,VALID,0.773438,
2001-08-12, 01:43:00,VALID,918.835,VALID,0,VALID,95.9451,VALID,-0.0849042,VALID,17.6933,VALID,115,VALID,0.957532,
2001-08-12, 01:44:00,VALID,918.821,VALID,0,VALID,95.7645,VALID,-0.0849042,VALID,17.6931,VALID,118,VALID,0.765848,
2001-08-12, 01:45:00,VALID,918.798,VALID,0,VALID,95.8841,VALID,-0.0679233,VALID,17.6737,VALID,124,VALID,0.958265,
2001-08-12, 01:46:00,VALID,918.783,VALID,0,VALID,95.8981,VALID,-0.0339617,VALID,17.6612,VALID,133,VALID,1.075,
2001-08-12, 01:47:00,VALID,918.762,VALID,0,VALID,96.188,VALID,-0.0679233,VALID,17.6218,VALID,142,VALID,1.25065,
2001-08-12, 01:48:00,VALID,918.754,VALID,0,VALID,96.5288,VALID,-0.0339617,VALID,17.619,VALID,137,VALID,1.30382,
2001-08-12, 01:49:00,VALID,918.764,VALID,0,VALID,96.5428,VALID,-0.0849042,VALID,17.5964,VALID,139,VALID,1.30773,
2001-08-12, 01:50:00,VALID,918.756,VALID,0,VALID,96.6661,VALID,-0.0679233,VALID,17.5579,VALID,133,VALID,1.12562,
2001-08-12, 01:51:00,VALID,918.74,VALID,0,VALID,96.7526,VALID,-0.0339617,VALID,17.5355,VALID,127,VALID,0.862413,
2001-08-12, 01:52:00,VALID,918.731,VALID,0,VALID,96.7856,VALID,-0.0679233,VALID,17.5063,VALID,118,VALID,0.909071,
2001-08-12, 01:53:00,VALID,918.705,VALID,0,VALID,96.75,VALID,-0.0849042,VALID,17.4772,VALID,114,VALID,0.695107,
2001-08-12, 01:54:00,VALID,918.697,VALID,0,VALID,96.9268,VALID,-0.0509425,VALID,17.4712,VALID,110,VALID,1.03527,
2001-08-12, 01:55:00,VALID,918.674,VALID,0,VALID,96.7984,VALID,-0.0849042,VALID,17.4903,VALID,108,VALID,0.991765,
2001-08-12, 01:56:00,VALID,918.667,VALID,0,VALID,96.5987,VALID,-0.0679233,VALID,17.5226,VALID,106,VALID,1.02091,
2001-08-12, 01:57:00,VALID,918.66,VALID,0,VALID,96.2617,VALID,-0.0679233,VALID,17.5508,VALID,94,VALID,0.993243,
2001-08-12, 01:58:00,VALID,918.641,VALID,0,VALID,95.8421,VALID,-0.101885,VALID,17.5676,VALID,86,VALID,1.03926,
2001-08-12, 01:59:00,VALID,918.625,VALID,0,VALID,95.8714,VALID,0,VALID,17.5833,VALID,98,VALID,1.15915,
2001-08-12, 02:00:00,VALID,918.619,VALID,0,VALID,95.8688,VALID,0.0169808,VALID,17.6082,VALID,105,VALID,1.17455,
2001-08-12, 02:01:00,VALID,918.603,VALID,0,VALID,95.584,VALID,0.0169808,VALID,17.676,VALID,103,VALID,0.968973,
2001-08-12, 02:02:00,VALID,918.611,VALID,0,VALID,95.2216,VALID,0.0339617,VALID,17.7277,VALID,105,VALID,0.780599,
2001-08-12, 02:03:00,VALID,918.606,VALID,0,VALID,94.7714,VALID,0.0169808,VALID,17.7789,VALID,98,VALID,0.812066,
2001-08-12, 02:04:00,VALID,918.617,VALID,0,VALID,94.4929,VALID,0.0339617,VALID,17.8218,VALID,106,VALID,0.669054,
2001-08-12, 02:05:00,VALID,918.609,VALID,0,VALID,94.1865,VALID,0,VALID,17.8442,VALID,98,VALID,0.751439,
2001-08-12, 02:06:00,VALID,918.593,VALID,0,VALID,94.1102,VALID,0.0169808,VALID,17.873,VALID,88,VALID,0.910373,
2001-08-12, 02:07:00,VALID,918.56,VALID,0,VALID,93.749,VALID,0.0339617,VALID,17.8958,VALID,70,VALID,0.853733,
2001-08-12, 02:08:00,VALID,918.538,VALID,0,VALID,93.6906,VALID,0.0339617,VALID,17.9092,VALID,89,VALID,0.884663,
2001-08-12, 02:09:00,VALID,918.506,VALID,0,VALID,93.5609,VALID,0,VALID,17.909,VALID,101,VALID,1.11004,
2001-08-12, 02:10:00,VALID,918.47,VALID,0,VALID,93.6867,VALID,0,VALID,17.912,VALID,114,VALID,1.14063,
2001-08-12, 02:11:00,VALID,918.454,VALID,0,VALID,93.5672,VALID,0,VALID,17.9318,VALID,128,VALID,1.12017,
2001-08-12, 02:12:00,VALID,918.452,VALID,0,VALID,93.3663,VALID,0.0339617,VALID,17.9249,VALID,130,VALID,1.18708,
2001-08-12, 02:13:00,VALID,918.46,VALID,0,VALID,93.482,VALID,0.0169808,VALID,17.9154,VALID,128,VALID,1.09796,
2001-08-12, 02:14:00,VALID,918.474,VALID,0,VALID,93.6638,VALID,0.0339617,VALID,17.893,VALID,138,VALID,1.11629,
2001-08-12, 02:15:00,VALID,918.483,VALID,0,VALID,93.5443,VALID,0.0169808,VALID,17.8891,VALID,138,VALID,0.981702,
2001-08-12, 02:16:00,VALID,918.476,VALID,0,VALID,92.8729,VALID,0,VALID,17.8924,VALID,111,VALID,0.758036,
2001-08-12, 02:17:00,VALID,918.453,VALID,0,VALID,92.4584,VALID,0.0169808,VALID,17.8543,VALID,105,VALID,0.559462,
2001-08-12, 02:18:00,VALID,918.443,VALID,0,VALID,91.8467,VALID,0,VALID,17.7378,VALID,97,VALID,0.577908,
2001-08-12, 02:19:00,VALID,918.4,VALID,0,VALID,93.1806,VALID,0.0339617,VALID,17.6343,VALID,107,VALID,1.01302,
2001-08-12, 02:20:00,VALID,918.375,VALID,0,VALID,92.7356,VALID,0,VALID,17.5667,VALID,68,VALID,0.716077,
2001-08-12, 02:21:00,VALID,918.374,VALID,0,VALID,93.1374,VALID,0.0169808,VALID,17.4406,VALID,64,VALID,0.750434,
2001-08-12, 02:22:00,VALID,918.378,VALID,0,VALID,94.3823,VALID,-0.0169808,VALID,17.4055,VALID,91,VALID,0.820095,
2001-08-12, 02:23:00,VALID,918.392,VALID,0,VALID,95.3907,VALID,0.0169808,VALID,17.4535,VALID,124,VALID,0.96361,
2001-08-12, 02:24:00,VALID,918.41,VALID,0,VALID,95.4212,VALID,0.0169808,VALID,17.5153,VALID,130,VALID,1.05536,
2001-08-12, 02:25:00,VALID,918.4,VALID,0,VALID,95.1669,VALID,0.0169808,VALID,17.5669,VALID,118,VALID,1.03188,
2001-08-12, 02:26:00,VALID,918.392,VALID,0,VALID,94.8604,VALID,0,VALID,17.6022,VALID,115,VALID,1.07376,
2001-08-12, 02:27:00,VALID,918.39,VALID,0,VALID,94.6277,VALID,0,VALID,17.6283,VALID,120,VALID,0.864654,
2001-08-12, 02:28:00,VALID,918.391,VALID,0,VALID,93.964,VALID,0,VALID,17.6285,VALID,100,VALID,0.652043,
2001-08-12, 02:29:00,VALID,918.388,VALID,0,VALID,92.7,VALID,-0.0679233,VALID,17.5678,VALID,69,VALID,0.370536,
2001-08-12, 02:30:00,VALID,918.39,VALID,0,VALID,92.1494,VALID,-0.0849042,VALID,17.3935,VALID,53,VALID,0.145354,
2001-08-12, 02:31:00,VALID,918.398,VALID,0,VALID,91.8633,VALID,-0.0339617,VALID,17.2519,VALID,39,VALID,0,
2001-08-12, 02:32:00,VALID,918.385,VALID,0,VALID,92.232,VALID,-0.0509425,VALID,17.0799,VALID,42,VALID,0.0922309,
2001-08-12, 02:33:00,VALID,918.374,VALID,0,VALID,93.3447,VALID,-0.0169808,VALID,16.9835,VALID,45,VALID,0.58572,
2001-08-12, 02:34:00,VALID,918.354,VALID,0,VALID,94.4586,VALID,-0.0509425,VALID,16.9385,VALID,55,VALID,0.716797,
2001-08-12, 02:35:00,VALID,918.357,VALID,0,VALID,95.3182,VALID,-0.0679233,VALID,16.9217,VALID,69,VALID,0.719572,
2001-08-12, 02:36:00,VALID,918.363,VALID,0,VALID,95.3932,VALID,-0.0679233,VALID,16.9191,VALID,55,VALID,0.724826,
2001-08-12, 02:37:00,VALID,918.372,VALID,0,VALID,94.9927,VALID,-0.0339617,VALID,16.8348,VALID,49,VALID,0.53125,
2001-08-12, 02:38:00,VALID,918.395,VALID,0,VALID,94.8236,VALID,-0.0169808,VALID,16.745,VALID,48,VALID,0.579359,
2001-08-12, 02:39:00,VALID,918.403,VALID,0,VALID,94.9049,VALID,-0.0679233,VALID,16.6286,VALID,47,VALID,0.695536,
2001-08-12, 02:40:00,VALID,918.395,VALID,0,VALID,95.556,VALID,-0.0849042,VALID,16.5479,VALID,43,VALID,0.781883,
2001-08-12, 02:41:00,VALID,918.392,VALID,0,VALID,96.9331,VALID,-0.0679233,VALID,16.5963,VALID,64,VALID,0.909467,
2001-08-12, 02:42:00,VALID,918.381,VALID,0,VALID,97.8182,VALID,-0.0509425,VALID,16.7319,VALID,79,VALID,0.972128,
2001-08-12, 02:43:00,VALID,918.37,VALID,0,VALID,98.0204,VALID,-0.0509425,VALID,16.8518,VALID,95,VALID,1.16126,
2001-08-12, 02:44:00,VALID,918.368,VALID,0,VALID,97.9657,VALID,0,VALID,16.9439,VALID,101,VALID,1.24174,
2001-08-12, 02:45:00,VALID,918.36,VALID,0,VALID,97.5639,VALID,0.0509425,VALID,17.0336,VALID,103,VALID,1.03002,
2001-08-12, 02:46:00,VALID,918.364,VALID,0,VALID,97.2599,VALID,0.0849042,VALID,17.0724,VALID,99,VALID,1.06295,
2001-08-12, 02:47:00,VALID,918.359,VALID,0,VALID,97.0603,VALID,0.0509425,VALID,17.1311,VALID,98,VALID,1.04536,
2001-08-12, 02:48:00,VALID,918.353,VALID,0,VALID,96.7322,VALID,0,VALID,17.1636,VALID,88,VALID,0.878689,
2001-08-12, 02:49:00,VALID,918.347,VALID,0,VALID,96.3927,VALID,0.0169808,VALID,17.1731,VALID,91,VALID,0.817274,
2001-08-12, 02:50:00,VALID,918.344,VALID,0,VALID,96.277,VALID,0.0169808,VALID,17.1567,VALID,95,VALID,0.876028,
2001-08-12, 02:51:00,VALID,918.356,VALID,0,VALID,96.4245,VALID,0.0339617,VALID,17.1761,VALID,110,VALID,1.02517,
2001-08-12, 02:52:00,VALID,918.357,VALID,0,VALID,96.2427,VALID,0.0339617,VALID,17.2185,VALID,104,VALID,1.01606,
2001-08-12, 02:53:00,VALID,918.364,VALID,0,VALID,96.0468,VALID,0.0339617,VALID,17.2475,VALID,113,VALID,1.34889,
2001-08-12, 02:54:00,VALID,918.367,VALID,0,VALID,95.6793,VALID,0.0339617,VALID,17.2632,VALID,106,VALID,1.14353,
2001-08-12, 02:55:00,VALID,918.389,VALID,0,VALID,95.5064,VALID,0.0339617,VALID,17.2861,VALID,101,VALID,1.18074,
2001-08-12, 02:56:00,VALID,918.396,VALID,0,VALID,95.2368,VALID,0.0169808,VALID,17.3121,VALID,104,VALID,0.889246,
2001-08-12, 02:57:00,VALID,918.399,VALID,0,VALID,95.0232,VALID,0.0169808,VALID,17.3313,VALID,104,VALID,1.1155,
2001-08-12, 02:58:00,VALID,918.387,VALID,0,VALID,94.7587,VALID,0.0339617,VALID,17.3605,VALID,95,VALID,1.08814,
2001-08-12, 02:59:00,VALID,918.368,VALID,0,VALID,94.4535,VALID,0,VALID,17.367,VALID,91,VALID,0.890179,
2001-08-12, 03:00:00,VALID,918.353,VALID,0,VALID,94.3899,VALID,0.0679233,VALID,17.3767,VALID,98,VALID,1.11863,
2001-08-12, 03:01:00,VALID,918.332,VALID,0,VALID,94.1827,VALID,0.0679233,VALID,17.3894,VALID,93,VALID,1.21473,
2001-08-12, 03:02:00,VALID,918.338,VALID,0,VALID,94.0008,VALID,0.0509425,VALID,17.4087,VALID,102,VALID,1.1467,
2001-08-12, 03:03:00,VALID,918.331,VALID,0,VALID,94.0733,VALID,0.0339617,VALID,17.4122,VALID,106,VALID,1.1174,
2001-08-12, 03:04:00,VALID,918.333,VALID,0,VALID,93.8431,VALID,0.0169808,VALID,17.4184,VALID,116,VALID,1.08767,
2001-08-12, 03:05:00,VALID,918.354,VALID,0,VALID,93.7668,VALID,0.0509425,VALID,17.4311,VALID,113,VALID,1.45127,
2001-08-12, 03:06:00,VALID,918.368,VALID,0,VALID,93.5545,VALID,0.0169808,VALID,17.4307,VALID,110,VALID,1.44748,
2001-08-12, 03:07:00,VALID,918.369,VALID,0,VALID,93.3332,VALID,0.0509425,VALID,17.4374,VALID,111,VALID,1.46962,
2001-08-12, 03:08:00,VALID,918.362,VALID,0,VALID,93.1132,VALID,0.0679233,VALID,17.463,VALID,102,VALID,1.42352,
2001-08-12, 03:09:00,VALID,918.345,VALID,0,VALID,92.8882,VALID,0.0509425,VALID,17.4765,VALID,96,VALID,1.07478,
2001-08-12, 03:10:00,VALID,918.319,VALID,0,VALID,92.7763,VALID,0.0169808,VALID,17.4703,VALID,96,VALID,0.980363,
2001-08-12, 03:11:00,VALID,918.312,VALID,0,VALID,92.6516,VALID,0.0339617,VALID,17.444,VALID,102,VALID,0.942555,
2001-08-12, 03:12:00,VALID,918.302,VALID,0,VALID,92.7318,VALID,0.0339617,VALID,17.4217,VALID,107,VALID,1.11486,
2001-08-12, 03:13:00,VALID,918.295,VALID,0,VALID,92.7623,VALID,0.0339617,VALID,17.4055,VALID,105,VALID,1.30629,
2001-08-12, 03:14:00,VALID,918.284,VALID,0,VALID,92.5487,VALID,-0.0509425,VALID,17.426,VALID,106,VALID,1.22165,
2001-08-12, 03:15:00,VALID,918.27,VALID,0,VALID,92.3897,VALID,-0.0849042,VALID,17.426,VALID,114,VALID,1.47718,
2001-08-12, 03:16:00,VALID,918.263,VALID,0,VALID,92.1519,VALID,-0.0679233,VALID,17.4423,VALID,121,VALID,1.18549,
2001-08-12, 03:17:00,VALID,918.252,VALID,0,VALID,92.0782,VALID,-0.101885,VALID,17.4296,VALID,115,VALID,1.63216,
2001-08-12, 03:18:00,VALID,918.254,VALID,0,VALID,92.1773,VALID,-0.0849042,VALID,17.4034,VALID,118,VALID,1.60742,
2001-08-12, 03:19:00,VALID,918.267,VALID,0,VALID,92.2257,VALID,-0.0509425,VALID,17.4004,VALID,117,VALID,1.46376,
2001-08-12, 03:20:00,VALID,918.264,VALID,0,VALID,92.2371,VALID,-0.0849042,VALID,17.3971,VALID,117,VALID,1.39535,
2001-08-12, 03:21:00,VALID,918.265,VALID,0,VALID,92.0019,VALID,-0.0339617,VALID,17.4131,VALID,118,VALID,1.176,
2001-08-12, 03:22:00,VALID,918.253,VALID,0,VALID,91.8811,VALID,-0.0679233,VALID,17.4131,VALID,111,VALID,1.07791,
2001-08-12, 03:23:00,VALID,918.229,VALID,0,VALID,92.0947,VALID,-0.101885,VALID,17.4098,VALID,110,VALID,1.37993,
2001-08-12, 03:24:00,VALID,918.213,VALID,0,VALID,92.1824,VALID,-0.0679233,VALID,17.3969,VALID,117,VALID,1.4625,
2001-08-12, 03:25:00,VALID,918.199,VALID,0,VALID,92.2168,VALID,-0.0849042,VALID,17.4101,VALID,116,VALID,1.57306,
2001-08-12, 03:26:00,VALID,918.183,VALID,0,VALID,92.143,VALID,-0.0849042,VALID,17.4354,VALID,117,VALID,1.68934,
2001-08-12, 03:27:00,VALID,918.174,VALID,0,VALID,92.0565,VALID,-0.101885,VALID,17.4686,VALID,116,VALID,1.55448,
2001-08-12, 03:28:00,VALID,918.183,VALID,0,VALID,92.0769,VALID,-0.0849042,VALID,17.4779,VALID,115,VALID,1.53766,
2001-08-12, 03:29:00,VALID,918.176,VALID,0,VALID,91.9383,VALID,0,VALID,17.4869,VALID,123,VALID,1.07054,
2001-08-12, 03:30:00,VALID,918.182,VALID,0,VALID,92.0133,VALID,-0.0339617,VALID,17.4839,VALID,120,VALID,0.989515,
2001-08-12, 03:31:00,VALID,918.191,VALID,0,VALID,92.0845,VALID,-0.0339617,VALID,17.48,VALID,115,VALID,1.1846,